TimeCST,TemperatureF,Dew PointF,Humidity,Sea Level PressureIn,VisibilityMPH,Wind Direction,Wind SpeedMPH,Gust SpeedMPH,PrecipitationIn,Events,Conditions,WindDirDegrees,DateUTC
12:13 AM,19.4,15.8,86,29.57,7.0,SSE,12.7,23.0,N/A,,Mostly Cloudy,150,2014-02-13 06:13:00
12:34 AM,21.2,15.8,80,29.54,7.0,SSE,15.0,20.7,N/A,Snow,Light Snow,160,2014-02-13 06:34:00
12:53 AM,21.2,17.6,86,29.51,7.0,SSE,16.1,-,N/A,,Scattered Clouds,160,2014-02-13 06:53:00
1:13 AM,21.2,17.6,86,29.50,7.0,SSE,17.3,25.3,N/A,,Mostly Cloudy,160,2014-02-13 07:13:00
1:33 AM,24.8,19.4,80,29.48,7.0,SSE,15.0,21.9,N/A,,Overcast,160,2014-02-13 07:33:00
1:53 AM,24.8,19.4,80,29.44,10.0,SSE,16.1,21.9,N/A,,Scattered Clouds,160,2014-02-13 07:53:00
2:13 AM,24.8,19.4,80,29.45,10.0,South,11.5,18.4,N/A,,Scattered Clouds,170,2014-02-13 08:13:00
2:33 AM,24.8,19.4,80,29.43,10.0,SSE,10.4,-,N/A,,Mostly Cloudy,160,2014-02-13 08:33:00
2:53 AM,26.6,21.2,80,29.41,10.0,South,12.7,-,N/A,,Scattered Clouds,190,2014-02-13 08:53:00
3:13 AM,26.6,21.2,80,29.40,10.0,South,15.0,-,N/A,,Scattered Clouds,190,2014-02-13 09:13:00
3:34 AM,26.6,21.2,80,29.39,10.0,South,9.2,-,N/A,,Scattered Clouds,190,2014-02-13 09:34:00
3:53 AM,26.6,21.2,80,29.39,10.0,South,6.9,-,N/A,,Clear,190,2014-02-13 09:53:00
4:13 AM,26.6,21.2,80,29.39,10.0,SW,8.1,-,N/A,,Clear,230,2014-02-13 10:13:00
4:33 AM,28.4,21.2,74,29.39,10.0,WSW,11.5,-,N/A,,Clear,240,2014-02-13 10:33:00
4:53 AM,30.2,24.8,80,29.39,10.0,WSW,13.8,-,N/A,,Scattered Clouds,250,2014-02-13 10:53:00
5:13 AM,30.2,24.8,80,29.39,10.0,WSW,12.7,-,N/A,,Mostly Cloudy,250,2014-02-13 11:13:00
5:33 AM,30.2,24.8,80,29.39,10.0,WSW,15.0,-,N/A,,Scattered Clouds,250,2014-02-13 11:33:00
5:53 AM,33.8,26.6,75,29.40,10.0,West,23.0,31.1,N/A,,Scattered Clouds,280,2014-02-13 11:53:00
6:13 AM,35.6,26.6,70,29.41,10.0,WNW,29.9,38.0,N/A,,Mostly Cloudy,300,2014-02-13 12:13:00
6:33 AM,32.0,24.8,75,29.44,4.0,WNW,27.6,42.6,N/A,,Haze,300,2014-02-13 12:33:00
6:53 AM,28.4,23.0,80,29.46,5.0,NW,27.6,41.4,N/A,,Haze,320,2014-02-13 12:53:00
7:13 AM,24.8,17.6,74,29.50,4.0,NW,33.4,38.0,N/A,,Haze,310,2014-02-13 13:13:00
7:33 AM,19.4,12.2,74,29.53,2.0,NW,34.5,42.6,N/A,,Haze,310,2014-02-13 13:33:00
7:53 AM,17.6,12.2,79,29.55,2.0,NW,32.2,39.1,N/A,,Haze,310,2014-02-13 13:53:00
8:13 AM,15.8,10.4,79,29.57,0.8,NW,36.8,43.7,N/A,Snow,Light Snow,310,2014-02-13 14:13:00
8:34 AM,14.0,10.4,86,29.59,0.5,NW,38.0,44.9,N/A,Snow,Light Snow,310,2014-02-13 14:34:00
8:54 AM,14.0,8.6,79,29.61,1.0,NW,38.0,44.9,N/A,Snow,Light Snow,310,2014-02-13 14:54:00
9:14 AM,14.0,8.6,79,29.61,0.5,NW,41.4,48.3,N/A,Snow,Light Snow,310,2014-02-13 15:14:00
9:33 AM,12.2,8.6,85,29.62,0.8,NW,32.2,44.9,N/A,Snow,Light Snow,310,2014-02-13 15:33:00
9:53 AM,12.2,6.8,79,29.63,0.8,NW,33.4,41.4,N/A,,Haze,310,2014-02-13 15:53:00
10:13 AM,12.2,6.8,79,29.63,1.5,NW,33.4,38.0,N/A,,Haze,310,2014-02-13 16:13:00
10:33 AM,12.2,6.8,79,29.65,1.8,NW,35.7,41.4,N/A,,Haze,320,2014-02-13 16:33:00
10:53 AM,12.2,6.8,79,29.66,3.0,NW,24.2,34.5,N/A,,Haze,320,2014-02-13 16:53:00
11:13 AM,12.2,6.8,79,29.67,2.0,NW,27.6,35.7,N/A,,Haze,310,2014-02-13 17:13:00
11:33 AM,12.2,5.0,73,29.69,2.0,NW,31.1,34.5,N/A,,Haze,320,2014-02-13 17:33:00
11:53 AM,10.4,5.0,79,29.71,2.0,NW,27.6,35.7,N/A,,Haze,310,2014-02-13 17:53:00
12:13 PM,12.2,5.0,73,29.71,2.5,NW,29.9,35.7,N/A,,Haze,320,2014-02-13 18:13:00
12:33 PM,10.4,5.0,79,29.71,1.8,NW,27.6,32.2,N/A,,Haze,310,2014-02-13 18:33:00
12:53 PM,12.2,6.8,79,29.72,2.5,NW,26.5,34.5,N/A,,Haze,320,2014-02-13 18:53:00
1:33 PM,12.2,5.0,73,29.72,4.0,NW,24.2,32.2,N/A,,Haze,310,2014-02-13 19:33:00
1:53 PM,12.2,5.0,73,29.72,1.8,NW,26.5,32.2,N/A,,Haze,320,2014-02-13 19:53:00
2:13 PM,12.2,5.0,73,29.74,3.0,NW,23.0,32.2,N/A,,Haze,320,2014-02-13 20:13:00
2:33 PM,10.4,5.0,79,29.74,1.5,NW,25.3,31.1,N/A,,Haze,320,2014-02-13 20:33:00
2:53 PM,10.4,5.0,79,29.74,4.0,NW,18.4,24.2,N/A,,Haze,320,2014-02-13 20:53:00
3:13 PM,12.2,3.2,67,29.75,5.0,NNW,19.6,-,N/A,,Haze,330,2014-02-13 21:13:00
3:33 PM,10.4,3.2,73,29.76,4.0,NW,17.3,23.0,N/A,,Haze,320,2014-02-13 21:33:00
3:53 PM,10.4,3.2,73,29.76,5.0,NW,20.7,-,N/A,,Haze,320,2014-02-13 21:53:00
4:13 PM,10.4,3.2,73,29.77,5.0,NW,19.6,-,N/A,,Haze,320,2014-02-13 22:13:00
4:33 PM,10.4,3.2,73,29.77,5.0,NNW,15.0,-,N/A,,Haze,330,2014-02-13 22:33:00
7:18 PM,3.2,-0.4,85,29.80,10.0,NNW,10.4,-,N/A,,Clear,340,2014-02-14 01:18:00
7:19 PM,3.2,-0.4,85,29.80,10.0,NNW,10.4,-,N/A,,Clear,340,2014-02-14 01:19:00
7:33 PM,3.2,-0.4,85,29.79,10.0,NNW,10.4,-,N/A,,Clear,330,2014-02-14 01:33:00
7:53 PM,5.0,-0.4,78,29.79,10.0,NNW,10.4,-,N/A,,Clear,330,2014-02-14 01:53:00
8:13 PM,5.0,-0.4,78,29.81,10.0,NW,10.4,-,N/A,,Clear,310,2014-02-14 02:13:00
8:33 PM,3.2,-0.4,85,29.82,10.0,NW,12.7,-,N/A,,Clear,320,2014-02-14 02:33:00
8:54 PM,3.2,-0.4,85,29.81,10.0,NNW,12.7,-,N/A,,Clear,330,2014-02-14 02:54:00
9:13 PM,3.2,-0.4,85,29.82,10.0,NW,10.4,-,N/A,,Clear,320,2014-02-14 03:13:00
9:34 PM,3.2,-0.4,85,29.81,10.0,NNW,13.8,-,N/A,,Scattered Clouds,340,2014-02-14 03:34:00
9:53 PM,3.2,-2.2,78,29.81,10.0,NNW,11.5,-,N/A,,Clear,330,2014-02-14 03:53:00
10:13 PM,3.2,-2.2,78,29.83,10.0,NW,11.5,-,N/A,,Scattered Clouds,310,2014-02-14 04:13:00
10:33 PM,3.2,-2.2,78,29.81,10.0,NNW,12.7,-,N/A,,Scattered Clouds,340,2014-02-14 04:33:00
10:53 PM,3.2,-2.2,78,29.81,10.0,NW,11.5,-,N/A,,Clear,320,2014-02-14 04:53:00
11:14 PM,3.2,-2.2,78,29.83,10.0,NW,10.4,-,N/A,,Clear,310,2014-02-14 05:14:00
11:33 PM,3.2,-2.2,78,29.83,10.0,NNW,9.2,-,N/A,,Scattered Clouds,330,2014-02-14 05:33:00
11:53 PM,3.2,-2.2,78,29.81,10.0,North,13.8,-,N/A,,Scattered Clouds,350,2014-02-14 05:53:00